Clinton, AR

7:21 AM CDT on October 15, 2019 (GMT -0500)
Clinton

Weather History for KCCA - July, 2019

Change the Weather History Date:

Tuesday, July 23, 2019

  Actual Average (KBVX) Record (KBVX)
Temperature  
Mean Temperature 73 °F -  
Max Temperature 82 °F 92 °F 102 °F (1974)
Min Temperature 62 °F 68 °F 57 °F (2007)
Cooling Degree Days 8    
Growing Degree Days 23 (Base 50)    
Moisture  
Dew Point 62 °F    
Average Humidity 74    
Maximum Humidity 100    
Minimum Humidity 45    
Precipitation  
Precipitation 0.00 in - - ()
Sea Level Pressure  
Sea Level Pressure 30.12 in    
Wind  
Wind Speed 2 mph (North)    
Max Wind Speed 8 mph    
Max Gust Speed 17 mph    
Visibility 10 miles    
Events      
Averages and records for this station are not official NWS values.
T = Trace of Precipitation, MM = Missing Value Source: NWS Daily Summary

Daily Weather History Graph

Daily Weather History Graph

Search for Another Location

Airport or City:

Astronomy

Jul. 23, 2019 Rise Set
Actual Time 6:11 AM CDT 8:21 PM CDT
Civil Twilight 5:42 AM CDT 8:49 PM CDT
Nautical Twilight 5:07 AM CDT 9:24 PM CDT
Astronomical Twilight 4:29 AM CDT 10:02 PM CDT
Moon No Moon Rise 12:13 PM CDT (7/23)
Length of Visible Light 15h 07m
Length of Day
14h 10m
Waning Gibbous, 63% of the Moon is Illuminated
Jul 23
Waning Gibbous
Jul 24
Last Quarter
Jul 31
New
Aug 7
First Quarter
Aug 15
Full

Hourly Weather History & Observations

Time (CDT) Temp. Heat Index Dew Point Humidity Pressure Visibility Wind Dir Wind Speed Gust Speed Precip Events Conditions
12:15 AM 66.2 °F - 64.4 °F 94% 30.08 in 10.0 mi Calm Calm - N/A   Clear
12:55 AM 66.2 °F - 64.4 °F 94% 30.09 in 10.0 mi Calm Calm - N/A   Clear
1:15 AM 64.4 °F - 64.4 °F 100% 30.09 in 9.0 mi Calm Calm - N/A   Clear
1:35 AM 64.4 °F - 64.4 °F 100% 30.08 in 10.0 mi Calm Calm - N/A   Clear
1:55 AM 64.4 °F - 64.4 °F 100% 30.09 in 10.0 mi Calm Calm - N/A   Clear
2:15 AM 64.4 °F - 64.4 °F 100% 30.09 in 10.0 mi Calm Calm - N/A   Clear
2:35 AM 64.4 °F - 64.4 °F 100% 30.09 in 10.0 mi Calm Calm - N/A   Clear
2:55 AM 64.4 °F - 64.4 °F 100% 30.09 in 9.0 mi Calm Calm - N/A   Clear
3:35 AM 64.4 °F - 64.4 °F 100% 30.10 in 10.0 mi Calm Calm - N/A   Clear
3:55 AM 64.4 °F - 64.4 °F 100% 30.09 in 10.0 mi Calm Calm - N/A   Partly Cloudy
4:15 AM 64.4 °F - 64.4 °F 100% 30.09 in 8.0 mi Calm Calm - N/A   Clear
4:35 AM 64.4 °F - 64.4 °F 100% 30.09 in 10.0 mi Calm Calm - N/A   Clear
4:55 AM 64.4 °F - 64.4 °F 100% 30.09 in 10.0 mi Calm Calm - N/A   Clear
5:15 AM 64.4 °F - 64.4 °F 100% 30.10 in 10.0 mi Calm Calm - N/A   Clear
5:35 AM 64.4 °F - 64.4 °F 100% 30.10 in 10.0 mi Calm Calm - N/A   Clear
5:55 AM 66.2 °F - 64.4 °F 94% 30.11 in 10.0 mi Calm Calm - N/A   Clear
6:15 AM 66.2 °F - 64.4 °F 94% 30.12 in 10.0 mi Calm Calm - N/A   Clear
6:35 AM 66.2 °F - 64.4 °F 94% 30.13 in 10.0 mi Calm Calm - N/A   Clear
6:55 AM 66.2 °F - 64.4 °F 94% 30.13 in 10.0 mi Variable 3.5 mph - N/A   Clear
7:15 AM 68.0 °F - 64.4 °F 88% 30.13 in 10.0 mi Calm Calm - N/A   Clear
7:35 AM 69.8 °F - 66.2 °F 88% 30.14 in 10.0 mi North - - N/A   Clear
7:55 AM 71.6 °F - 66.2 °F 83% 30.14 in 10.0 mi Calm Calm - N/A   Clear
8:15 AM 71.6 °F - 66.2 °F 83% 30.15 in 10.0 mi Variable 4.6 mph - N/A   Clear
8:35 AM 73.4 °F - 66.2 °F 78% 30.15 in 10.0 mi Variable 4.6 mph 11.5 mph N/A   Clear
8:55 AM 73.4 °F - 66.2 °F 78% 30.16 in 10.0 mi Calm Calm - N/A   Clear
9:15 AM 75.2 °F - 66.2 °F 73% 30.16 in 10.0 mi Variable 3.5 mph 12.7 mph N/A   Partly Cloudy
9:35 AM 75.2 °F - 64.4 °F 69% 30.16 in 10.0 mi Variable 4.6 mph - N/A   Clear
9:55 AM 77.0 °F - 62.6 °F 61% 30.16 in 10.0 mi Variable 4.6 mph 12.7 mph N/A   Partly Cloudy
10:15 AM 75.2 °F - 62.6 °F 65% 30.16 in 10.0 mi Calm Calm - N/A   Scattered Clouds
10:35 AM 77.0 °F - 60.8 °F 57% 30.17 in 10.0 mi Variable 5.8 mph - N/A   Partly Cloudy
10:55 AM 78.8 °F - 60.8 °F 54% 30.16 in 10.0 mi Variable 5.8 mph 12.7 mph N/A   Clear
11:15 AM 78.8 °F - 60.8 °F 54% 30.16 in 10.0 mi North 4.6 mph 11.5 mph N/A   Partly Cloudy
11:55 AM 78.8 °F - 59.0 °F 51% 30.16 in 10.0 mi Variable 6.9 mph 17.3 mph N/A   Scattered Clouds
12:15 PM 78.8 °F - 59.0 °F 51% 30.16 in 10.0 mi Variable 5.8 mph 13.8 mph N/A   Scattered Clouds
12:35 PM 80.6 °F 81.1 °F 59.0 °F 48% 30.15 in 10.0 mi ENE 6.9 mph - N/A   Partly Cloudy
12:55 PM 80.6 °F 81.1 °F 59.0 °F 48% 30.15 in 10.0 mi Variable 5.8 mph 11.5 mph N/A   Clear
1:15 PM 82.4 °F 82.5 °F 59.0 °F 45% 30.15 in 10.0 mi Variable 4.6 mph 11.5 mph N/A   Clear
1:35 PM 80.6 °F 81.1 °F 59.0 °F 48% 30.15 in 10.0 mi Variable 5.8 mph - N/A   Partly Cloudy
1:55 PM 80.6 °F 81.1 °F 59.0 °F 48% 30.14 in 10.0 mi Variable 5.8 mph 13.8 mph N/A   Scattered Clouds
2:15 PM 82.4 °F 82.5 °F 59.0 °F 45% 30.13 in 10.0 mi Variable 4.6 mph 13.8 mph N/A   Partly Cloudy
2:35 PM 82.4 °F 82.5 °F 59.0 °F 45% 30.13 in 10.0 mi NW 4.6 mph - N/A   Partly Cloudy
2:55 PM 82.4 °F 82.5 °F 59.0 °F 45% 30.12 in 10.0 mi NNW 8.1 mph - N/A   Partly Cloudy
3:15 PM 82.4 °F 82.5 °F 59.0 °F 45% 30.12 in 10.0 mi Variable 5.8 mph 12.7 mph N/A   Partly Cloudy
3:35 PM 82.4 °F 82.5 °F 59.0 °F 45% 30.11 in 10.0 mi Calm Calm - N/A   Partly Cloudy
3:55 PM 82.4 °F 82.5 °F 59.0 °F 45% 30.11 in 10.0 mi NNW 8.1 mph - N/A   Partly Cloudy
4:15 PM 82.4 °F 82.5 °F 59.0 °F 45% 30.11 in 10.0 mi Calm Calm 12.7 mph N/A   Partly Cloudy
4:35 PM 82.4 °F 82.5 °F 59.0 °F 45% 30.11 in 10.0 mi Variable 4.6 mph 11.5 mph N/A   Clear
4:55 PM 82.4 °F 82.5 °F 59.0 °F 45% 30.10 in 10.0 mi Variable 5.8 mph - N/A   Clear
5:15 PM 82.4 °F 82.5 °F 59.0 °F 45% 30.10 in 10.0 mi North 5.8 mph - N/A   Clear
5:35 PM 82.4 °F 82.5 °F 59.0 °F 45% 30.09 in 10.0 mi NNW 6.9 mph - N/A   Clear
5:55 PM 82.4 °F 82.5 °F 59.0 °F 45% 30.09 in 10.0 mi Variable 4.6 mph - N/A   Clear
6:15 PM 80.6 °F 81.1 °F 59.0 °F 48% 30.09 in 10.0 mi Variable 6.9 mph - N/A   Clear
6:55 PM 80.6 °F 81.1 °F 59.0 °F 48% 30.09 in 10.0 mi Variable 3.5 mph - N/A   Clear
7:15 PM 78.8 °F - 59.0 °F 51% 30.10 in 10.0 mi Calm Calm - N/A   Clear
7:55 PM 75.2 °F - 62.6 °F 65% 30.10 in 10.0 mi Calm Calm - N/A   Clear
8:35 PM 69.8 °F - 64.4 °F 83% 30.11 in 10.0 mi Calm Calm - N/A   Clear
8:55 PM 69.8 °F - 62.6 °F 78% 30.11 in 10.0 mi Calm Calm - N/A   Scattered Clouds
9:15 PM 68.0 °F - 64.4 °F 88% 30.12 in 10.0 mi Calm Calm - N/A   Partly Cloudy
9:35 PM 66.2 °F - 62.6 °F 88% 30.13 in 10.0 mi Calm Calm - N/A   Clear
9:55 PM 66.2 °F - 62.6 °F 88% 30.13 in 10.0 mi Calm Calm - N/A   Clear
10:15 PM 64.4 °F - 62.6 °F 94% 30.14 in 10.0 mi Calm Calm - N/A   Clear
10:35 PM 64.4 °F - 62.6 °F 94% 30.15 in 10.0 mi Calm Calm - N/A   Clear
10:55 PM 64.4 °F - 62.6 °F 94% 30.15 in 10.0 mi Calm Calm - N/A   Clear
11:15 PM 64.4 °F - 62.6 °F 94% 30.15 in 10.0 mi Calm Calm - N/A   Clear
11:55 PM 62.6 °F - 62.6 °F 100% 30.16 in 10.0 mi Calm Calm - N/A   Clear